EW3456 Weather Reports


time (UTC)temp
C
wind
direction
speed
KPH
gust
KPH
rain 1hr
cm
rain 24hr
cm
rain mn
cm
humidity
%
barometer
mb
20260906070602 22 80 0.0 0.0 0.00 0.00 0.00 94 1009.9
20260906065602 22 80 0.0 0.0 0.00 0.00 0.00 93 1010.1
20260906063601 23 80 0.0 0.0 0.00 0.00 0.00 93 1010.3
20260906061601 23 80 0.0 0.0 0.00 0.00 0.00 94 1010.6
20260906060602 23 80 0.0 0.0 0.00 0.00 0.00 94 1010.8
20260906055602 23 80 0.0 0.0 0.00 0.00 0.00 94 1010.8
20260906054601 23 80 0.0 0.0 0.00 0.00 0.00 93 1011.0
20260906053602 23 80 0.0 0.0 0.00 0.00 0.00 93 1011.2
20260906052601 23 80 0.0 0.0 0.00 0.00 0.00 93 1011.3
20260906051601 23 80 0.0 0.0 0.00 0.00 0.00 93 1011.5
20260906050602 23 80 0.0 0.0 0.00 0.00 0.00 93 1011.5
20260906045602 23 80 0.0 0.0 0.00 0.00 0.00 93 1011.4
20260906044601 23 80 0.0 0.0 0.00 0.00 0.00 93 1011.4
20260906043602 23 80 0.0 0.0 0.00 0.00 0.00 93 1011.4
20260906041601 23 80 0.0 0.0 0.00 0.00 0.00 93 1011.5
20260906040602 23 80 0.0 0.0 0.00 0.00 0.41 93 1011.3
20260906035602 23 80 0.0 0.0 0.00 0.00 0.41 93 1011.5
20260906034601 23 80 0.0 0.0 0.00 0.00 0.41 93 1011.5
20260906033602 23 80 0.0 0.0 0.00 0.00 0.41 93 1011.4
20260906032602 23 80 0.0 0.0 0.00 0.00 0.41 93 1011.5
20260906031602 23 80 0.0 0.0 0.00 0.00 0.41 93 1011.3
20260906025602 24 80 0.0 0.0 0.00 0.00 0.41 93 1011.3
20260906024602 24 80 0.0 0.0 0.00 0.00 0.41 93 1011.3
20260906023602 24 80 0.0 0.0 0.00 0.00 0.41 93 1011.2
20260906022602 24 80 0.0 0.0 0.00 0.00 0.41 93 1011.3
20260906021602 24 80 0.0 0.0 0.00 0.00 0.41 93 1011.2
20260906020601 24 80 0.0 0.0 0.00 0.00 0.41 93 1011.2
20260906015602 24 80 0.0 0.0 0.00 0.00 0.41 93 1011.2
20260906014601 24 80 0.0 0.0 0.00 0.00 0.41 93 1011.3
20260906013602 24 80 0.0 1.6 0.00 0.00 0.41 93 1011.4
20260906012602 24 80 0.0 0.0 0.00 0.00 0.41 93 1011.1
20260906011602 25 80 0.0 0.0 0.00 0.00 0.41 93 1010.9
20260906005601 25 80 0.0 0.0 0.00 0.00 0.41 93 1010.7
20260906003602 25 80 0.0 0.0 0.00 0.00 0.41 93 1010.3
20260906000602 25 80 0.0 1.6 0.00 0.00 0.41 93 1010.4
20260905235601 25 84 0.0 1.6 0.00 0.00 0.41 93 1010.3
20260905234602 25 102 0.0 1.6 0.00 0.00 0.41 92 1010.1
20260905233601 25 110 0.0 0.0 0.00 0.00 0.41 92 1009.9
20260905232601 25 108 0.0 1.6 0.00 0.00 0.41 92 1010.1
20260905231601 25 109 0.0 0.0 0.00 0.00 0.41 92 1010.2
20260905230601 25 109 0.0 0.0 0.00 0.00 0.41 92 1010.0
20260905225602 25 109 0.0 0.0 0.00 0.00 0.41 92 1010.0
20260905224601 25 109 0.0 0.0 0.00 0.00 0.41 92 1010.1
20260905222602 25 109 0.0 0.0 0.00 0.00 0.41 92 1010.2
20260905221601 25 109 0.0 0.0 0.00 0.00 0.41 92 1010.1
20260905215602 25 247 0.0 0.0 0.00 0.00 0.41 91 1009.9
20260905213601 25 293 0.0 0.0 0.00 0.00 0.41 91 1010.1
20260905212602 25 293 0.0 0.0 0.00 0.00 0.41 91 1010.1
20260905211601 25 317 0.0 1.6 0.00 0.00 0.41 90 1010.1
20260905210602 25 309 0.0 1.6 0.00 0.00 0.41 89 1010.4
20260905205602 26 309 0.0 0.0 0.00 0.00 0.38 85 1010.3
20260905204602 26 308 0.0 0.0 0.00 0.00 0.38 82 1010.4
20260905203601 27 305 0.0 0.0 0.00 0.00 0.36 80 1010.7
20260905202601 28 305 0.0 1.6 0.00 0.00 0.33 78 1010.5
20260905200601 30 252 0.0 3.2 0.00 0.00 0.18 69 1011.2
20260905195602 32 244 1.6 6.4 0.00 0.00 0.00 60 1010.4
20260905194602 33 108 0.0 0.0 0.00 0.00 0.00 59 1009.7
20260905193601 33 108 0.0 1.6 0.00 0.00 0.00 57 1009.7
20260905192602 34 108 0.0 0.0 0.00 0.00 0.00 52 1009.4
20260905191602 36 101 0.0 1.6 0.00 0.00 0.00 51 1009.5
20260905185601 36 71 0.0 1.6 0.00 0.00 0.00 49 1009.4
20260905184601 36 98 0.0 3.2 0.00 0.00 0.00 50 1009.5
20260905183602 35 101 1.6 6.4 0.00 0.00 0.00 50 1009.7
20260905182602 35 33 0.0 1.6 0.00 0.00 0.00 52 1009.7
20260905181601 35 175 0.0 3.2 0.00 0.00 0.00 51 1010.0
20260905180602 35 99 1.6 6.4 0.00 0.00 0.00 52 1010.2
20260905175602 35 88 0.0 4.8 0.00 0.00 0.00 54 1010.5
20260905174602 35 87 0.0 3.2 0.00 0.00 0.00 54 1010.7
20260905173601 35 88 0.0 1.6 0.00 0.00 0.00 55 1010.8
20260905172602 34 205 1.6 6.4 0.00 0.00 0.00 55 1011.0
20260905171601 35 115 1.6 6.4 0.00 0.00 0.00 56 1011.0
20260905170601 33 309 0.0 3.2 0.00 0.00 0.00 61 1011.3
20260905164601 33 299 0.0 1.6 0.00 0.00 0.00 63 1011.7
20260905163602 33 346 0.0 1.6 0.00 0.00 0.00 63 1011.9
20260905162602 33 90 0.0 1.6 0.00 0.00 0.00 66 1012.1
20260905161602 32 212 0.0 1.6 0.00 0.00 0.00 66 1012.1
20260905160602 32 214 0.0 1.6 0.00 0.00 0.00 68 1012.1
20260905154602 32 217 0.0 3.2 0.00 0.00 0.00 68 1012.3
20260905151601 31 320 0.0 0.0 0.00 0.00 0.00 72 1012.5
20260905150601 31 314 0.0 0.0 0.00 0.00 0.00 73 1012.5
20260905145602 30 287 0.0 0.0 0.00 0.00 0.00 73 1012.5
20260905144602 30 351 0.0 0.0 0.00 0.00 0.00 76 1012.6
20260905143602 29 330 0.0 0.0 0.00 0.00 0.00 77 1012.6
20260905142601 29 250 0.0 0.0 0.00 0.00 0.00 77 1012.9
20260905140602 28 282 0.0 0.0 0.00 0.00 0.00 81 1013.0
20260905134602 26 12 0.0 0.0 0.00 0.00 0.00 88 1013.0
20260905133602 26 86 0.0 0.0 0.00 0.00 0.00 89 1013.0
20260905132601 25 86 0.0 0.0 0.00 0.00 0.00 91 1013.1
20260905131601 25 86 0.0 0.0 0.00 0.00 0.00 92 1013.1
20260905130601 25 88 0.0 0.0 0.00 0.00 0.00 92 1013.1
20260905124602 24 91 0.0 0.0 0.00 0.00 0.00 93 1013.1
20260905123601 23 133 0.0 0.0 0.00 0.00 0.00 93 1013.1
20260905122602 23 133 0.0 0.0 0.00 0.00 0.00 93 1013.0
20260905121602 23 133 0.0 0.0 0.00 0.00 0.00 93 1012.9
20260905120601 23 133 0.0 0.0 0.00 0.00 0.00 93 1012.9
20260905115602 23 133 0.0 0.0 0.00 0.00 0.00 92 1013.0
20260905114602 23 133 0.0 0.0 0.00 0.00 0.00 92 1012.7
20260905111602 23 133 0.0 0.0 0.00 0.00 0.00 91 1012.5
20260905110602 23 133 0.0 0.0 0.00 0.00 0.00 91 1012.4
20260905104601 23 133 0.0 0.0 0.00 0.00 0.00 91 1012.3
20260905103602 23 133 0.0 0.0 0.00 0.00 0.00 91 1012.2
20260905102601 23 133 0.0 0.0 0.00 0.00 0.00 90 1012.1
20260905101602 23 133 0.0 0.0 0.00 0.00 0.00 90 1012.0
20260905095602 23 133 0.0 0.0 0.00 0.00 0.00 90 1011.8
20260905094601 23 133 0.0 0.0 0.00 0.00 0.00 90 1011.8
20260905093601 23 133 0.0 0.0 0.00 0.00 0.00 90 1012.0
20260905092602 23 133 0.0 0.0 0.00 0.00 0.00 90 1012.0
20260905090601 24 133 0.0 0.0 0.00 0.00 0.00 90 1012.1
20260905085602 24 133 0.0 0.0 0.00 0.00 0.00 90 1012.0
20260905084601 24 133 0.0 0.0 0.00 0.00 0.00 90 1012.1
20260905083601 24 133 0.0 0.0 0.00 0.00 0.00 90 1012.3
20260905082601 24 133 0.0 0.0 0.00 0.00 0.00 90 1012.3
20260905081602 24 133 0.0 0.0 0.00 0.00 0.00 90 1012.3
20260905080601 24 133 0.0 0.0 0.00 0.00 0.00 89 1012.2
20260905075602 25 133 0.0 0.0 0.00 0.00 0.00 89 1012.3
20260905074601 25 133 0.0 0.0 0.00 0.00 0.00 89 1012.4
20260905073601 25 133 0.0 0.0 0.00 0.00 0.00 89 1012.4
20260905072602 25 133 0.0 0.0 0.00 0.00 0.00 89 1012.5